EXS1AX EGCC-ENBR

Flight info

Callsign EXS1AX
Flight time N/A
Altitude 39000
Route POL N601 RIBEL DCT APPLE DCT GOMOT DCT RIGVU DCT MODNI
Aircraft B738/M-SDE2E3FGHIRWXY/LB1

Departure

Time N/A
Airport Manchester Airport (EGCC)

Arrival

Time 2026-04-30 18:50
Airport Bergen Airport, Flesland (ENBR)
Time Latitude Longitude Altitude Speed Heading
2026-04-30 17:39 54.67808 -2.27437 30284 ft 460 kts 41°
2026-04-30 17:41 54.88655 -1.99566 32502 ft 472 kts 41°
2026-04-30 17:42 54.93842 -1.92518 33131 ft 472 kts 41°
2026-04-30 17:42 55.01545 -1.82001 34202 ft 469 kts 41°
2026-04-30 17:43 55.06683 -1.74948 34687 ft 469 kts 41°
2026-04-30 17:44 55.14307 -1.64445 35628 ft 463 kts 40°
2026-04-30 17:44 55.21835 -1.54021 36457 ft 460 kts 40°
2026-04-30 17:46 55.34383 -1.36525 37525 ft 459 kts 40°
2026-04-30 17:47 55.44352 -1.22523 38286 ft 460 kts 39°
2026-04-30 17:48 55.54259 -1.08516 39057 ft 457 kts 39°
2026-04-30 17:48 55.61644 -0.98012 39274 ft 454 kts 39°
2026-04-30 17:50 55.81516 -0.69479 39319 ft 457 kts 39°
2026-04-30 17:52 55.96834 -0.50355 39425 ft 447 kts 20°
2026-04-30 17:53 56.11095 -0.38061 39347 ft 461 kts 27°
2026-04-30 17:54 56.22631 -0.27729 39340 ft 462 kts 25°
2026-04-30 17:55 56.34034 -0.17737 39333 ft 451 kts 26°
2026-04-30 17:56 56.45316 -0.07765 39336 ft 456 kts 26°
2026-04-30 17:58 56.62572 0.07628 39336 ft 460 kts 26°
2026-04-30 18:00 56.85153 0.28009 39364 ft 451 kts 26°
2026-04-30 18:01 56.99404 0.41013 39365 ft 463 kts 26°
2026-04-30 18:02 57.16769 0.57014 39354 ft 468 kts 26°
2026-04-30 18:04 57.34140 0.73189 39363 ft 463 kts 26°
2026-04-30 18:06 57.56944 0.94687 39368 ft 458 kts 26°
2026-04-30 18:08 57.76970 1.13817 39376 ft 471 kts 26°
2026-04-30 18:10 58.00126 1.36246 39374 ft 460 kts 26°
2026-04-30 18:11 58.20014 1.55766 39382 ft 461 kts 25°
2026-04-30 18:13 58.34258 1.69904 39375 ft 463 kts 25°
2026-04-30 18:14 58.48527 1.84197 39380 ft 464 kts 25°
2026-04-30 18:15 58.65718 2.01597 38115 ft 466 kts 25°
2026-04-30 18:16 58.71350 2.07347 37338 ft 456 kts 26°
2026-04-30 18:16 58.76906 2.13033 36524 ft 448 kts 26°
2026-04-30 18:17 58.79636 2.15878 36161 ft 444 kts 28°
2026-04-30 18:17 58.82254 2.19071 35552 ft 448 kts 33°
2026-04-30 18:17 58.87225 2.26168 34765 ft 443 kts 36°
2026-04-30 18:18 58.89665 2.29775 34418 ft 440 kts 36°
2026-04-30 18:18 58.92093 2.33342 33981 ft 437 kts 36°
2026-04-30 18:18 58.93702 2.35683 33686 ft 436 kts 36°
2026-04-30 18:18 58.96154 2.39219 33314 ft 432 kts 35°
2026-04-30 18:19 58.98561 2.42664 32933 ft 429 kts 35°
2026-04-30 18:19 59.00923 2.46033 32577 ft 426 kts 35°
2026-04-30 18:19 59.03300 2.49421 32204 ft 423 kts 35°
2026-04-30 18:19 59.05663 2.52793 31837 ft 420 kts 35°
2026-04-30 18:20 59.08011 2.56147 31477 ft 417 kts 35°
2026-04-30 18:20 59.10343 2.59486 31129 ft 414 kts 35°
2026-04-30 18:20 59.12658 2.62808 30773 ft 412 kts 35°
2026-04-30 18:20 59.14954 2.66109 30427 ft 409 kts 35°
2026-04-30 18:21 59.17235 2.69394 30006 ft 407 kts 35°
2026-04-30 18:21 59.19502 2.72664 29620 ft 403 kts 35°
2026-04-30 18:21 59.21746 2.75907 29257 ft 400 kts 35°
2026-04-30 18:21 59.23975 2.79134 28856 ft 397 kts 35°
2026-04-30 18:22 59.26181 2.82333 28534 ft 393 kts 35°
2026-04-30 18:22 59.30542 2.88675 27796 ft 389 kts 35°
2026-04-30 18:22 59.32705 2.91826 27434 ft 386 kts 35°
2026-04-30 18:23 59.34851 2.94959 27060 ft 384 kts 35°
2026-04-30 18:23 59.36987 2.98081 26718 ft 382 kts 35°
2026-04-30 18:23 59.39110 3.01190 26356 ft 380 kts 35°
2026-04-30 18:23 59.41224 3.04290 26004 ft 378 kts 35°
2026-04-30 18:24 59.43710 3.07942 25593 ft 376 kts 35°
2026-04-30 18:24 59.45800 3.11018 25255 ft 375 kts 35°
2026-04-30 18:24 59.47886 3.14092 24818 ft 376 kts 35°
2026-04-30 18:25 59.49982 3.17186 24481 ft 375 kts 35°
2026-04-30 18:25 59.54130 3.23325 23785 ft 371 kts 36°
2026-04-30 18:25 59.56187 3.26378 23408 ft 370 kts 35°
2026-04-30 18:26 59.60274 3.32457 22682 ft 366 kts 35°
2026-04-30 18:26 59.62299 3.35475 22317 ft 364 kts 35°
2026-04-30 18:26 59.64314 3.38483 21981 ft 362 kts 35°
2026-04-30 18:27 59.68314 3.44468 21297 ft 359 kts 35°
2026-04-30 18:27 59.70299 3.47443 20959 ft 357 kts 35°
2026-04-30 18:28 59.74246 3.53376 20284 ft 355 kts 35°
2026-04-30 18:28 59.76208 3.56333 19947 ft 354 kts 35°
2026-04-30 18:28 59.80101 3.62210 19252 ft 353 kts 36°
2026-04-30 18:29 59.82083 3.65211 18894 ft 354 kts 36°
2026-04-30 18:29 59.87917 3.74068 17817 ft 352 kts 36°
2026-04-30 18:30 59.91788 3.79969 17132 ft 349 kts 36°
2026-04-30 18:30 59.95629 3.85842 16465 ft 347 kts 36°
2026-04-30 18:31 59.97542 3.88774 16122 ft 346 kts 36°
2026-04-30 18:31 60.01348 3.94616 15452 ft 344 kts 37°
2026-04-30 18:32 60.05100 4.00577 14733 ft 345 kts 41°
2026-04-30 18:32 60.06883 4.03792 14369 ft 345 kts 43°
2026-04-30 18:32 60.10400 4.10308 13647 ft 344 kts 43°
2026-04-30 18:33 60.12156 4.13546 13328 ft 342 kts 42°
2026-04-30 18:33 60.15649 4.19946 12655 ft 339 kts 42°
2026-04-30 18:33 60.17386 4.23122 12322 ft 337 kts 41°
2026-04-30 18:34 60.19116 4.26285 11997 ft 335 kts 41°
2026-04-30 18:34 60.22548 4.32571 11355 ft 332 kts 41°
2026-04-30 18:34 60.24247 4.35693 11038 ft 330 kts 41°
2026-04-30 18:35 60.25937 4.38807 10726 ft 329 kts 41°
2026-04-30 18:35 60.27618 4.41908 10456 ft 325 kts 41°
2026-04-30 18:35 60.29257 4.44940 10354 ft 316 kts 41°
2026-04-30 18:36 60.32484 4.50916 9656 ft 315 kts 41°
2026-04-30 18:36 60.34092 4.53899 9341 ft 314 kts 41°
2026-04-30 18:36 60.37038 4.60277 8729 ft 309 kts 63°
2026-04-30 18:37 60.37972 4.64081 8681 ft 297 kts 65°
2026-04-30 18:37 60.38995 4.67664 8481 ft 293 kts 46°
2026-04-30 18:37 60.40652 4.69786 8447 ft 274 kts 13°
2026-04-30 18:37 60.42477 4.70395 8389 ft 259 kts 354°
2026-04-30 18:38 60.44208 4.69866 8374 ft 247 kts 335°
2026-04-30 18:38 60.45834 4.68679 8411 ft 254 kts 337°
2026-04-30 18:38 60.47643 4.68421 8397 ft 266 kts 359°
2026-04-30 18:38 60.49486 4.68713 8416 ft 265 kts 358°
2026-04-30 18:39 60.51312 4.68814 8301 ft 261 kts 355°
2026-04-30 18:39 60.53130 4.69282 7951 ft 270 kts 15°
2026-04-30 18:39 60.54865 4.70749 7741 ft 269 kts 21°
2026-04-30 18:39 60.56567 4.72287 7492 ft 268 kts 20°
2026-04-30 18:40 60.58169 4.74159 7197 ft 272 kts 36°
2026-04-30 18:40 60.59584 4.76668 7040 ft 267 kts 40°
2026-04-30 18:40 60.60948 4.79199 6823 ft 265 kts 41°
2026-04-30 18:40 60.62120 4.82113 6497 ft 268 kts 60°
2026-04-30 18:41 60.62895 4.85494 6320 ft 262 kts 78°
2026-04-30 18:41 60.62856 4.89124 6010 ft 255 kts 112°
2026-04-30 18:41 60.62038 4.92174 5837 ft 242 kts 135°
2026-04-30 18:41 60.60771 4.94329 5522 ft 235 kts 157°
2026-04-30 18:42 60.59267 4.95496 5324 ft 229 kts 167°
2026-04-30 18:42 60.56239 4.97262 4640 ft 226 kts 167°
2026-04-30 18:42 60.54742 4.98151 4317 ft 222 kts 167°
2026-04-30 18:45 60.45672 5.15714 3031 ft 153 kts 166°
2026-04-30 18:45 60.44656 5.16316 3018 ft 151 kts 166°
2026-04-30 18:45 60.43634 5.16888 2893 ft 154 kts 168°
2026-04-30 18:46 60.42588 5.17333 2708 ft 152 kts 171°
2026-04-30 18:46 60.41565 5.17701 2492 ft 143 kts 171°
2026-04-30 18:46 60.40621 5.18024 2327 ft 132 kts 171°
2026-04-30 18:46 60.39740 5.18322 2153 ft 125 kts 170°
2026-04-30 18:47 60.38875 5.18613 1964 ft 127 kts 171°
2026-04-30 18:47 60.37993 5.18909 1787 ft 130 kts 171°
2026-04-30 18:47 60.37101 5.19208 1598 ft 130 kts 171°
2026-04-30 18:47 60.36205 5.19509 1426 ft 130 kts 170°
2026-04-30 18:48 60.35302 5.19811 1224 ft 132 kts 170°
2026-04-30 18:48 60.34420 5.20108 1058 ft 131 kts 170°
2026-04-30 18:48 60.33513 5.20412 855 ft 132 kts 169°
2026-04-30 18:48 60.32620 5.20712 680 ft 129 kts 169°
2026-04-30 18:49 60.31734 5.21011 493 ft 129 kts 168°
2026-04-30 18:49 60.30850 5.21329 316 ft 130 kts 168°
2026-04-30 18:49 60.29965 5.21619 182 ft 125 kts 169°
2026-04-30 18:49 60.29226 5.21860 174 ft 81 kts 171°
2026-04-30 18:50 60.28849 5.21983 173 ft 32 kts 170°
2026-04-30 18:50 60.28711 5.22030 174 ft 14 kts 170°
2026-04-30 18:50 60.28662 5.22141 174 ft 8 kts 78°
2026-04-30 18:50 60.28671 5.22246 173 ft 0 kts 79°
2026-04-30 18:51 60.28671 5.22250 173 ft 2 kts 79°
2026-04-30 18:51 60.28676 5.22302 173 ft 5 kts 79°
2026-04-30 18:51 60.28684 5.22381 173 ft 6 kts 79°
2026-04-30 18:52 60.28695 5.22457 173 ft 6 kts 67°
2026-04-30 18:52 60.28710 5.22530 173 ft 6 kts 73°
2026-04-30 18:52 60.28710 5.22531 173 ft 0 kts 72°
2026-04-30 18:52 60.28714 5.22534 173 ft 1 kts 21°
2026-04-30 18:53 60.28732 5.22526 173 ft 5 kts 351°
2026-04-30 18:53 60.28774 5.22533 173 ft 6 kts 28°
2026-04-30 18:53 60.28799 5.22565 173 ft 5 kts 32°
2026-04-30 18:53 60.28823 5.22597 173 ft 0 kts 33°